Regional Weather Roundup
Issued by NWS Wakefield, VA

Home | Current Version | Previous Version | Graphics & Text | Print | Product List | Glossary On
Versions: 1 2 3 4 5 6 7 8 9 10 11 12 13 14 15 16 17 18 19 20 21 22 23 24 25 26 27 28 29 30 31 32 33 34 35 36 37 38 39 40 41 42 43 44 45 46 47 48 49 50
734
ASUS41 KAKQ 302215
RWRAKQ

REGIONAL WEATHER ROUNDUP
NATIONAL WEATHER SERVICE WAKEFIELD VA
600 PM EDT MON MAY 30 2016

Note: "fair" indicates few or no clouds below 12,000 feet with no
significant weather and/or obstructions to visibility. * = Denotes
station may not report precipitation (e.g., rain,snow,etc.),
thunder or fog.

VAZ042-051-052>054-056-302300-
NORTHERN VIRGINIA

CITY           SKY/WX    TMP DP  RH WIND       PRES   REMARKS
WASH NATIONAL  PTSUNNY   76  71  85 S10       29.95S
DULLES         PTSUNNY   79  68  69 S5        29.94S
FORT BELVOIR   FAIR      76  70  81 SE9       29.94F
QUANTICO       FAIR      76  72  87 S8        29.95F
FREDERICKSBRG* FAIR      77  72  85 SE6       29.94F
STAFFORD*      FAIR      76  69  80 S7        29.99F
WARRENTON      FAIR      80  65  61 SE5       29.94F
CULPEPER*      FAIR      80  70  70 SE5       29.95F
MANASSAS*      SUNNY     79  70  73 S8        29.94F
LEESBURG*      CLOUDY    82  70  65 SE7       29.94S
WINCHESTER     FAIR      82  61  47 SE3       29.94F
FRONT ROYAL*   FAIR      82  68  61 E6        29.93S
LURAY*         FAIR      82  64  54 E3        29.94F
$$

VAZ048-049-060>072-079>083-302300-
CENTRAL AND SOUTH CENTRAL VIRGINIA

CITY           SKY/WX    TMP DP  RH WIND       PRES   REMARKS
RICHMOND       LGT RAIN  71  70  96 SE6       29.96F FOG
CHESTERFIELD*  FAIR      72  61  68 SE6       29.98F
PETERSBURG*    FAIR      73  73 100 E5        29.97F
HANOVER        PTSUNNY   73  69  87 VRB3      29.97F
TAPPAHANNOCK*  LGT RAIN  72  72 100 CALM      29.98S
QUINTON*       CLOUDY    71  70  98 E6        29.96F
CHARLOTTSVILLE PTSUNNY   82  68  62 SE7       29.95S
GORDONSVILLE*  FAIR      79  71  76 CALM      29.95S
ORANGE*        FAIR      79  70  73 NE6       29.97F
LOUISA*        FAIR      81  73  78 SE6       29.94F
BUMPASS*       CLOUDY    75  71  86 E3        29.96F
FARMVILLE*     PTSUNNY   80  70  71 SE3       29.94S
CREWE*         FAIR      73  73  98 CALM      29.96S
FORT PICKETT*  NOT AVBL
CHASE CITY*    MOCLDY    78  73  87 E5        29.95F
CLARKSVILLE*   FAIR      77  72  83 E8        29.94F
SOUTH HILL*    FAIR      75  70  86 CALM      30.01F
LAWRENCEVILLE* FAIR      74  71  89 E5        29.96F
EMPORIA*         N/A     72  70  94 N6        29.97F
$$

VAZ088>098-302300-
SOUTHEAST VIRGINIA

CITY           SKY/WX    TMP DP  RH WIND       PRES   REMARKS
NORFOLK        RAIN      71  68  90 CALM      29.98S FOG
VIRGINIA BEACH CLOUDY    77  69  76 SE7       29.96F
NORFOLK NAVAL  RAIN      71  69  93 N6        30.00R VSB 1
WEST POINT*    CLOUDY    70  69  96 SE7       29.98F
SALUDA*        CLOUDY    69  68  98 SE3       29.97F
NEWPORT NEWS   RAIN      70  69  97 E6        29.98F FOG
LANGLEY AFB    RAIN      72  72 100 N5        29.98F FOG
FORT EUSTIS    LGT RAIN  69  55  60 SE8       29.96F
WILLIAMSBURG*  FAIR      72  72 100 SE7       29.97F
HR EXEC AP*      N/A     73  70  88 NE5       29.99S
FRANKLIN*      DRIZZLE   71  69  95 N5        29.98S
US460-WAKEFLD  LGT RAIN  71  69  93 E5        29.97F
$$

VAZ020-022-025-037-045-302300-
WEST CENTRAL AND SOUTHWEST VIRGINIA

CITY           SKY/WX    TMP DP  RH WIND       PRES   REMARKS
STAUNTON*      FAIR      77  65  65 SE5       29.98S
WAYNESBORO*    FAIR      78  61  56 SE8       29.98S
HOT SPRINGS VA RAIN      63  63 100 NW10G17   30.10R
LYNCHBURG      PTSUNNY   80  67  64 VRB6      29.96F
DANVILLE       FAIR      83  67  58 E5        29.93F
SOUTH BOSTON*  MOCLDY    83  70  65 E6        29.94S
MARTINSVILLE   FAIR      82  64  56 N5        29.96F
ROANOKE        FAIR      81  62  52 SE6       29.98S
BLACKSBURG     FAIR      79  62  55 E5        30.04S
DUBLIN*        PTSUNNY   80  61  52 NW5       30.01F
MARION*        CLOUDY    73  63  69 E7        30.06R
HILLSVILLE*    PTSUNNY   77  57  50 NE3       30.02F
RICHLANDS*     FAIR      78  48  35 N9        30.05S
WISE*          FAIR      79  50  36 N6        30.07F
ABINGDON*      FAIR      83  58  42 N10G16    30.01S
$$

MDZ021>025-VAZ099-100-302300-
SOUTHERN MARYLAND AND THE DELMARVA PENINSULA

CITY           SKY/WX    TMP DP  RH WIND       PRES   REMARKS
PATUXENT RIVER CLOUDY    71  68  90 SE6       29.97S
BAY BRIDGE APT CLOUDY    73  70  88 S8        29.96S
LEONARDTOWN    CLOUDY    70  68  94 SE5       29.98F
DOVER          LGT RAIN  73  73 100 S8        29.95F
GEORGETOWN     LGT RAIN  72  71  97 S6        29.98R
EASTON         CLOUDY    73  73 100 S7        30.00
CAMBRIDGE        N/A     70  68  94 S6        29.98R
SALISBURY      LGT RAIN  69  67  93 S7        29.98S FOG
OCEAN CITY     HVY RAIN  69  68  96 CALM      29.98F VSB 1
WALLOPS ISLAND RAIN      69  68  96 NW7       29.99F FOG
ACCOMACK*      RAIN      68  64  88 CALM      29.99S
$$

NCZ012>017-030>032-302300-
NORTH CENTRAL AND EASTERN NORTH CAROLINA

CITY           SKY/WX    TMP DP  RH WIND       PRES   REMARKS
ROANOKE RAPIDS FAIR      75  68  78 NW5       29.95R
RALEIGH        CLOUDY    73  70  90 NE6       29.94S
ELIZABETH CITY LGT RAIN  73  71  93 SE7       29.97S
AHOSKIE*         N/A     75  71  88 SE3       29.96S
EDENTON*       CLOUDY   N/A N/A N/A SE5       29.96S
CURRITUCK*     DRIZZLE   74  74  99 CALM      29.98S
KILL DEVIL HLS RAIN      71  70  95 CALM      29.97S
MANTEO         NOT AVBL
CAPE HATTERAS  LGT RAIN  73  71  93 S10       29.95F
TARBORO*       MOCLDY    76  70  81 SE3       29.95S
GOLDSBORO      LGT RAIN  75  75 100 E9        29.91S
WASHINGTON     CLOUDY    74  71  92 E5        29.94S
GREENVILLE     CLOUDY    75  72  88 SE5       29.96S
NEW BERN       MOSUNNY   77  70  79 E7        29.94S
WILMINGTON     CLOUDY    79  67  66 E12       29.90R
$$

VAZ048-302300-
ELSEWHERE

CITY           SKY/WX    TMP DP  RH WIND       PRES   REMARKS
HARRISBURG PA  CLOUDY    85  62  46 S6        29.91S
BALTIMORE      CLOUDY    75  67  76 S8        29.95S
ANNAPOLIS      CLOUDY    71  68  90 S10       29.95F
ANDREWS AFB    FAIR      73  71  92 S6        29.96R
PHILADELPHIA   CLOUDY    75  68  78 S7        29.96R
HENDERSON NC   CLOUDY    73  68  84 CALM      29.96S
GREENSBORO     PTSUNNY   83  64  52 NE6       29.93F
ROCKY MOUNT    CLOUDY    78  68  71 E3        29.93S
$$

VAZ100-302300-
MARINE

STATION/POSITION TIME  TEMP    WIND        PRES    WAVE   SWELL
                       AIR SEA DIR/SP/G            HT/PER HT/PER
                 (UTC) (F)     (DEG/KT/KT) (MB)    (FT/S) (FT/S)
BRANDYWINE LGT   2100   67     180/ 14/ 16 1014.9F
CAPE MAY NJ      2100   68 69  160/  9/ 11 1014.6F
LEWES DE         2100   70 66  150/  4/  8 1014.6F
15NM E FENWICK I 2150   66 65              1015.3S   4/ 6
OCEAN-CITY-INLET 2100   67 58  130/  2/  3 1015.6F
WACHAPREAGUE VA  2100   69 75  330/  2/  3 1015.2S
THOMAS POINT MD  2200   70 69  170/ 17/ 19 1015.5F
GOOSES REEF MD   2200   70 69  170/ 12/ 14 1015.7F   1/ 3
COVE POINT MD    2100   68     190/ 10/ 12 1015.5F
SOLOMONS ISLAND  2100   71 69  160/  7/  9   N/A
BISHOPS HEAD MD  2100   70 75  160/ 10/ 11 1014.9F
PINEY POINT MD   2100          170/ 11/ 12   N/A
POTOMAC MD       2200   69 71  160/  8/ 10 1014.0S   1/ 2
CAMBRIDGE MD     2100   72 70  210/  3/  7 1013.9F
LEWISETTA VA     2100   71 74  190/  7/  9 1014.5F
RAPPAHANNOCK LGT 2100           20/  4/  4 1016.2S
STINGRAY PT      2200   69 69  150/ 10/ 10 1015.4F   0
YORK RVR RNG VA  2100   71      20/  4/  5 1015.0S
YORKTOWN VA      2100   70 69  100/  6/  6 1015.3R
JAMESTOWN VA     2200   71 75  110/  8/ 12   N/A     0
DOMINION TERM VA 2100   71      20/  5/  9 1015.4S
KIPTOPEKE VA     2100      70  180/  2/  2   N/A
CHES BAY BRIDGE  2100   71 65  150/  2/  4 1015.1S
CAPE HENRY VA    2100   70     140/  5/  7   N/A
CHESAPEAKE LGHT  2100   69     170/ 10/ 10 1016.0R
WILLOUBY STN VA  2100   70      10/  8/  8 1016.3R
CAPE HENRY BUOY  2112      69                N/A     4/ 7
1ST LANDING BUOY 2200   69 69   20/  2/  2 1015.2R   2/ 5
CAPE CHARLES BUO 2126      70                N/A     4/ 7   3/ 7
OFFSHORE WE BUOY 2121      70                N/A     5/ 7   5/ 7
64NM E OF VA BCH 2150   66 64  210/  2/  4 1015.3R   7/ 8   7/ 8
DUCK PIER NC     2100   63 58  150/  9/ 10 1014.4S
44100 DUCK FRF   2124      67                N/A     5/ 8
44056 DUCK FRF   2111      62                N/A     4/ 8
OREGON INLET NC  2100   69 76  120/  3/  5 1015.1F
HATTERAS NC      2100   72 75  140/ 13/ 18 1014.1F
DIAMOND SHLS NC  2150   77 80  170/ 16/ 19 1013.6F   7/ 8   3/ 8
CAPE LOOC1F1C2F2C3F3C4F4C5F5C6F6C7F7C8M1C9!



USA.gov is the U.S. government's official web portal to all federal, state and local government web resources and services.